Change the Weather History Date:

Tuesday, November 29, 2011

  Actual Average Record
Temperature  
Mean Temperature 48 °F 34 °F  
Max Temperature 59 °F 41 °F 73 °F (2005)
Min Temperature 37 °F 27 °F 6 °F (1976)
Degree Days  
Heating Degree Days 17 31  
Month to date heating degree days 563 744  
Since 1 July heating degree days 888 1487  
Cooling Degree Days 0 0  
Month to date cooling degree days 0 0  
Year to date cooling degree days 0 362  
Moisture  
Dew Point 47 °F    
Average Humidity 80    
Maximum Humidity 93    
Minimum Humidity 67    
Precipitation  
Precipitation 0.35 in 0.13 in 1.71 in (2005)
Month to date precipitation 3.65 3.56  
Sea Level Pressure  
Sea Level Pressure 29.67 in    
Wind  
Wind Speed 10 mph (SSE)    
Max Wind Speed 28 mph    
Max Gust Speed 35 mph    
Visibility 9 miles    
Events Rain    
T = Trace of Precipitation, MM = Missing Value Source: NWS Daily Summary

Daily Weather History Graph

Daily Weather History Graph

Search for Another Location

Airport or City:

Trip Planner

Search our weather history database for the weather conditions in past years. The results will help you decide how hot, cold, wet, or windy it might be!

Date:

Astronomy

Nov. 29, 2011 Rise Set
Actual Time 7:19 AM EST 4:48 PM EST
Civil Twilight 6:48 AM EST 5:18 PM EST
Nautical Twilight 6:14 AM EST 5:52 PM EST
Astronomical Twilight 5:41 AM EST 6:26 PM EST
Moon 11:03 AM EST (11/29) 9:40 PM EST (11/29)
Length of Visible Light 10h 30m
Length of Day
9h 29m
Waxing Crescent, 24% of the Moon is Illuminated
Nov 29
Waxing Crescent
Dec 2
First Quarter
Dec 10
Full
Dec 17
Last Quarter
Dec 24
New

Hourly Weather History & Observations

Time (EST) Temp. Windchill Dew Point Humidity Pressure Visibility Wind Dir Wind Speed Gust Speed Precip Events Conditions
12:56 AM 53.6 °F - 48.2 °F 82% 29.88 in 10.0 mi ESE 8.1 mph - N/A   Clear
1:40 AM 55.4 °F - 51.8 °F 88% 29.86 in 10.0 mi SE 10.4 mph - N/A   Mostly Cloudy
1:56 AM 55.9 °F - 51.1 °F 84% 29.85 in 10.0 mi ESE 9.2 mph - N/A   Overcast
2:56 AM 55.9 °F - 51.1 °F 84% 29.84 in 10.0 mi SE 10.4 mph - N/A   Mostly Cloudy
3:54 AM 57.2 °F - 51.8 °F 82% 29.82 in 10.0 mi SE 10.4 mph - N/A   Mostly Cloudy
3:56 AM 57.0 °F - 52.0 °F 83% 29.81 in 10.0 mi SE 11.5 mph 18.4 mph N/A   Mostly Cloudy
4:56 AM 57.9 °F - 52.0 °F 81% 29.78 in 10.0 mi SE 12.7 mph 19.6 mph N/A   Partly Cloudy
6:56 AM 57.0 °F - 51.1 °F 81% 29.76 in 10.0 mi SE 9.2 mph 20.7 mph N/A   Mostly Cloudy
7:22 AM 57.2 °F - 51.8 °F 82% 29.76 in 10.0 mi ESE 6.9 mph - N/A   Overcast
7:52 AM 55.4 °F - 53.6 °F 94% 29.76 in 9.0 mi SE 11.5 mph 18.4 mph 0.01 in Rain Light Rain
7:56 AM 55.9 °F - 53.1 °F 90% 29.75 in 7.0 mi ESE 8.1 mph 18.4 mph 0.02 in Rain Light Rain
9:56 AM 55.9 °F - 54.0 °F 93% 29.70 in 8.0 mi ESE 10.4 mph 19.6 mph 0.08 in Rain Light Rain
10:19 AM 55.4 °F - 53.6 °F 94% 29.70 in 6.0 mi East 8.1 mph - 0.03 in Rain Light Rain
10:56 AM 55.4 °F - 53.6 °F 94% 29.67 in 8.0 mi East 9.2 mph 17.3 mph N/A Rain Light Rain
11:56 AM 55.9 °F - 54.0 °F 93% 29.64 in 7.0 mi SE 13.8 mph 20.7 mph 0.01 in   Overcast
12:02 PM 55.4 °F - 55.4 °F 100% 29.64 in 6.0 mi SE 11.5 mph - 0.00 in Rain Light Rain
12:09 PM 55.4 °F - 55.4 °F 100% 29.63 in 4.0 mi SE 12.7 mph 17.3 mph 0.01 in Rain Light Rain
12:17 PM 55.4 °F - 55.4 °F 100% 29.63 in 6.0 mi SE 8.1 mph - 0.01 in Rain Light Rain
12:56 PM 57.2 °F - 55.4 °F 94% 29.61 in 10.0 mi ESE 9.2 mph - N/A Rain Light Rain
1:18 PM 57.2 °F - 55.4 °F 94% 29.58 in 10.0 mi ESE 16.1 mph 26.5 mph 0.00 in Rain Light Rain
1:56 PM 57.0 °F - 54.0 °F 89% 29.53 in 10.0 mi SE 11.5 mph 20.7 mph 0.01 in   Mostly Cloudy
2:56 PM 57.9 °F - 46.0 °F 65% 29.54 in 10.0 mi South 8.1 mph 16.1 mph N/A   Clear
3:40 PM 48.2 °F - 42.8 °F 82% 29.58 in 10.0 mi WSW 24.2 mph 34.5 mph N/A   Mostly Cloudy
3:56 PM 46.9 °F - 41.0 °F 80% 29.59 in 10.0 mi WSW 20.7 mph - N/A   Overcast
4:04 PM 46.4 °F 39.5 °F 41.0 °F 81% 29.59 in 10.0 mi WSW 17.3 mph 26.5 mph N/A   Overcast
4:14 PM 46.4 °F 41.1 °F 41.0 °F 81% 29.59 in 10.0 mi WSW 11.5 mph 21.9 mph N/A   Overcast
4:56 PM 45.0 °F 39.7 °F 39.0 °F 80% 29.60 in 10.0 mi WSW 10.4 mph - N/A   Mostly Cloudy
5:56 PM 42.8 °F 36.2 °F 35.6 °F 76% 29.61 in 10.0 mi WSW 12.7 mph - N/A   Overcast
6:03 PM 42.8 °F 37.0 °F 35.6 °F 76% 29.61 in 10.0 mi WSW 10.4 mph - N/A   Overcast
6:56 PM 42.1 °F 36.6 °F 35.1 °F 76% 29.62 in 10.0 mi WSW 9.2 mph - N/A   Overcast
7:56 PM 39.9 °F 34.5 °F 36.0 °F 86% 29.61 in 10.0 mi West 8.1 mph - N/A   Overcast
8:30 PM 39.2 °F 37.0 °F 35.6 °F 87% 29.60 in 10.0 mi Variable 3.5 mph - N/A   Overcast
8:56 PM 39.0 °F 35.7 °F 34.0 °F 82% 29.61 in 10.0 mi WSW 4.6 mph - N/A   Overcast
9:56 PM 37.0 °F 34.5 °F 33.1 °F 86% 29.59 in 10.0 mi SW 3.5 mph - N/A   Overcast
10:25 PM 37.4 °F 32.8 °F 33.8 °F 87% 29.58 in 10.0 mi WSW 5.8 mph - N/A   Overcast
11:56 PM 37.0 °F 28.9 °F 32.0 °F 82% 29.59 in 10.0 mi SW 12.7 mph 19.6 mph N/A   Overcast